Regional Weather Roundup
Issued by NWS

Home | Current Version | Previous Version | Graphics & Text | Print | Product List | Glossary On
Versions: 1 2 3 4 5 6 7 8 9 10 11 12 13 14 15 16 17 18 19 20 21 22 23 24 25 26 27 28 29 30 31 32 33 34 35 36 37 38 39 40 41 42 43 44 45 46 47 48 49 50
000
ASUS45 KCYS 010410
RWRWY

WYOMING REGIONAL WEATHER ROUNDUP
NATIONAL WEATHER SERVICE CHEYENNE WY
1000 PM MDT FRI JUL 31 2015

NOTE:  "FAIR" INDICATES FEW OR NO CLOUDS BELOW 12,000 FEET
WITH NO SIGNIFICANT WEATHER AND/OR OBSTRUCTIONS TO VISIBILITY.

WYZ001-010500-
YELLOWSTONE NATIONAL PARK

CITY           SKY/WX    TMP DP  RH WIND       PRES   REMARKS
LK YELLOWSTONE   N/A     56  35  45 NW5       30.46R
W YELLOWSTONE  NOT AVBL

$$
WYZ002>013-054>058-071-098>099-010500-
NORTHERN WYOMING

CITY           SKY/WX    TMP DP  RH WIND       PRES   REMARKS
JACKSON        NOT AVBL
CODY           FAIR      75  28  17 SW5       30.22R
GREYBULL       FAIR      85  35  16 N7        30.09R
WORLAND        FAIR      74  32  21 NE5       30.10R
SHERIDAN       FAIR      65  48  54 S9        30.11R
BUFFALO        FAIR      72  39  30 W9        30.20R
GILLETTE       FAIR      77  48  35 SE15      30.14R
HULETT         FAIR      70  52  52 SE9       30.15S
NEWCASTLE      FAIR      75  43  31 MISG      30.16R

$$
WYZ014>020-022>026-101>103-010500-
CENTRAL WYOMING

CITY           SKY/WX    TMP DP  RH WIND       PRES   REMARKS
BIG PINEY      FAIR      60  29  30 NW10      30.35R
PINEDALE       FAIR      57  36  44 W7        30.36R
DUBOIS         FAIR      66  28  24 NW9       30.36R
LANDER         FAIR      74  34  23 W10       30.19R
RIVERTON       FAIR      78  29  16 NE12      30.20R
CASPER         FAIR      73  37  27 MISG      30.18R
DOUGLAS        FAIR      73  44  35 SE13      30.18R

$$
WYZ021-027>030-104>119-010500-
SOUTHERN WYOMING

CITY           SKY/WX    TMP DP  RH WIND       PRES   REMARKS
EVANSTON       FAIR      69  24  18 N6        30.37R
KEMMERER       FAIR      64  28  25 N5        30.38R
FORT BRIDGER   CLEAR     70  23  17 W6        30.38R
ROCK SPRINGS   FAIR      73  17  12 NW9       30.30R
DIXON          FAIR      67  27  21 E12       30.29R
RAWLINS        FAIR      64  20  18 N7        30.29R
SARATOGA       FAIR      68  37  32 S9        30.32R
LARAMIE        FAIR      64  45  49 SE12      30.36R
CHEYENNE       FAIR      71  47  42 S14       30.30R
TORRINGTON     FAIR      71  53  52 E8        30.16R
PINE BLUFFS    FAIR      68  46  45 SE6       30.25R

$$


USA.gov is the U.S. government's official web portal to all federal, state and local government web resources and services.